Nashua, NH

12:57 AM EDT on August 26, 2019 (GMT -0400)
Boire

Weather History for KASH - May, 2019

Change the Weather History Date:

Wednesday, May 15, 2019

  Actual Average Record
Temperature  
Mean Temperature 50 °F -  
Max Temperature 59 °F 70 °F 91 °F (2004)
Min Temperature 41 °F 41 °F 30 °F (1971)
Degree Days  
Heating Degree Days 15    
Moisture  
Dew Point 41 °F    
Average Humidity 77    
Maximum Humidity 100    
Minimum Humidity 42    
Precipitation  
Precipitation 0.01 in - - ()
Sea Level Pressure  
Sea Level Pressure 29.82 in    
Wind  
Wind Speed 6 mph ()    
Max Wind Speed 20 mph    
Max Gust Speed 28 mph    
Visibility 10.0 miles    
Events Rain    
Averages and records for this station are not official NWS values.
T = Trace of Precipitation, MM = Missing Value Source: Averaged Metar Reports

Daily Weather History Graph

Daily Weather History Graph

Search for Another Location

Airport or City:

Astronomy

May. 15, 2019 Rise Set
Actual Time 5:23 AM EDT 8:01 PM EDT
Civil Twilight 4:51 AM EDT 8:34 PM EDT
Nautical Twilight 4:10 AM EDT 9:15 PM EDT
Astronomical Twilight 3:24 AM EDT 10:01 PM EDT
Moon 4:21 PM EDT (5/15) 3:55 AM EDT (5/15)
Length of Visible Light 15h 43m
Length of Day
14h 38m
Waxing Gibbous, 87% of the Moon is Illuminated
May 15
Waxing Gibbous
May 18
Full
May 26
Last Quarter
Jun 3
New
Jun 10
First Quarter

Hourly Weather History & Observations

Time (EDT) Temp. Windchill Dew Point Humidity Pressure Visibility Wind Dir Wind Speed Gust Speed Precip Events Conditions
12:56 AM 43.0 °F 40.3 °F 43.0 °F 100% 29.85 in 10.0 mi WNW 4.6 mph - N/A   Overcast
1:15 AM 42.8 °F 41.1 °F 42.8 °F 100% 29.81 in 10.0 mi WNW 3.5 mph - N/A   Overcast
1:33 AM 42.8 °F 41.1 °F 42.8 °F 100% 29.81 in 10.0 mi West 3.5 mph - N/A   Overcast
1:49 AM 42.8 °F 41.1 °F 42.8 °F 100% 29.80 in 10.0 mi WNW 3.5 mph - N/A   Overcast
1:56 AM 43.0 °F 41.3 °F 43.0 °F 100% 29.84 in 10.0 mi WNW 3.5 mph - N/A   Overcast
2:56 AM 42.1 °F 39.2 °F 42.1 °F 100% 29.83 in 10.0 mi WNW 4.6 mph - 0.00 in   Overcast
3:56 AM 42.1 °F 40.2 °F 42.1 °F 100% 29.82 in 10.0 mi West 3.5 mph - 0.01 in Rain Light Rain
4:56 AM 42.1 °F - 42.1 °F 100% 29.82 in 10.0 mi Calm Calm - 0.00 in   Mostly Cloudy
5:04 AM 41.0 °F 39.0 °F 41.0 °F 100% 29.78 in 10.0 mi West 3.5 mph - N/A   Mostly Cloudy
6:56 AM 42.1 °F 39.2 °F 42.1 °F 100% 29.82 in 10.0 mi WNW 4.6 mph - N/A   Mostly Cloudy
7:56 AM 45.0 °F 42.6 °F 43.0 °F 93% 29.83 in 10.0 mi WNW 4.6 mph - N/A   Mostly Cloudy
8:34 AM 48.2 °F - 42.8 °F 82% 29.79 in 10.0 mi NW 12.7 mph - N/A   Mostly Cloudy
8:56 AM 48.9 °F - 42.1 °F 77% 29.83 in 10.0 mi NW 8.1 mph - N/A   Mostly Cloudy
9:56 AM 51.1 °F - 37.9 °F 61% 29.82 in 10.0 mi NW 19.6 mph 27.6 mph N/A   Overcast
10:56 AM 52.0 °F - 37.9 °F 59% 29.83 in 10.0 mi NW 17.3 mph 27.6 mph N/A   Overcast
11:56 AM 54.0 °F - 37.0 °F 53% 29.82 in 10.0 mi NW 16.1 mph 25.3 mph N/A   Mostly Cloudy
12:56 PM 55.0 °F - 37.0 °F 51% 29.81 in 10.0 mi NW 16.1 mph - N/A   Overcast
1:56 PM 55.0 °F - 37.0 °F 51% 29.81 in 10.0 mi NNW 13.8 mph 21.9 mph N/A   Overcast
2:56 PM 55.0 °F - 37.0 °F 51% 29.81 in 10.0 mi WNW 12.7 mph 20.7 mph N/A   Overcast
3:56 PM 57.0 °F - 37.0 °F 47% 29.80 in 10.0 mi NW 13.8 mph 21.9 mph N/A   Overcast
4:56 PM 59.0 °F - 37.0 °F 44% 29.80 in 10.0 mi NNW 10.4 mph - N/A   Mostly Cloudy
5:56 PM 59.0 °F - 36.0 °F 42% 29.81 in 10.0 mi NNW 8.1 mph - N/A   Mostly Cloudy
6:56 PM 57.0 °F - 37.0 °F 47% 29.81 in 10.0 mi NNE 3.5 mph - N/A   Mostly Cloudy
7:56 PM 54.0 °F - 42.1 °F 64% 29.83 in 10.0 mi Calm Calm - N/A   Overcast
8:56 PM 52.0 °F - 46.0 °F 80% 29.84 in 10.0 mi WNW 3.5 mph - 0.00 in   Overcast
9:56 PM 51.1 °F - 45.0 °F 80% 29.85 in 10.0 mi Calm Calm - N/A   Overcast
10:56 PM 48.9 °F - 45.0 °F 86% 29.84 in 10.0 mi Calm Calm - N/A   Overcast
11:56 PM 50.0 °F - 46.0 °F 86% 29.84 in 10.0 mi Calm Calm - N/A   Overcast